TimeEDT,TemperatureF,Dew PointF,Humidity,Sea Level PressureIn,VisibilityMPH,Wind Direction,Wind SpeedMPH,Gust SpeedMPH,PrecipitationIn,Events,Conditions,WindDirDegrees,DateUTC
12:51 AM,28.0,12.9,53,30.35,10.0,Calm,Calm,-,N/A,,Clear,0,2013-04-07 04:51:00
1:51 AM,27.0,12.0,53,30.33,10.0,Calm,Calm,-,N/A,,Partly Cloudy,0,2013-04-07 05:51:00
2:51 AM,28.0,17.1,63,30.32,10.0,Calm,Calm,-,N/A,,Overcast,0,2013-04-07 06:51:00
3:51 AM,28.0,17.1,63,30.31,10.0,Calm,Calm,-,N/A,,Mostly Cloudy,0,2013-04-07 07:51:00
4:51 AM,30.9,18.0,59,30.28,10.0,ESE,6.9,-,N/A,,Clear,110,2013-04-07 08:51:00
5:51 AM,28.0,18.0,66,30.30,10.0,Calm,Calm,-,N/A,,Clear,0,2013-04-07 09:51:00
6:51 AM,30.0,21.0,69,30.32,10.0,Calm,Calm,-,N/A,,Overcast,0,2013-04-07 10:51:00
7:51 AM,34.0,24.1,67,30.33,10.0,Calm,Calm,-,N/A,,Mostly Cloudy,0,2013-04-07 11:51:00
8:51 AM,39.0,27.0,62,30.31,10.0,SSW,4.6,-,N/A,,Overcast,200,2013-04-07 12:51:00
9:51 AM,42.1,26.1,53,30.28,10.0,South,11.5,-,N/A,,Overcast,190,2013-04-07 13:51:00
10:51 AM,44.6,26.6,49,30.25,10.0,South,20.7,26.5,N/A,,Clear,170,2013-04-07 14:51:00
11:51 AM,43.0,30.0,60,30.21,10.0,South,12.7,26.5,N/A,,Mostly Cloudy,180,2013-04-07 15:51:00
12:51 PM,44.1,30.0,58,30.18,10.0,South,19.6,31.1,N/A,,Overcast,190,2013-04-07 16:51:00
1:51 PM,44.1,32.0,63,30.14,10.0,South,13.8,28.8,N/A,,Scattered Clouds,180,2013-04-07 17:51:00
2:51 PM,44.1,30.0,58,30.10,10.0,South,17.3,29.9,N/A,,Mostly Cloudy,190,2013-04-07 18:51:00
3:51 PM,45.0,28.9,53,30.06,10.0,South,13.8,31.1,N/A,,Clear,180,2013-04-07 19:51:00
4:51 PM,45.0,30.9,58,30.01,10.0,South,16.1,26.5,N/A,,Clear,180,2013-04-07 20:51:00
5:51 PM,45.0,34.0,65,30.01,10.0,South,13.8,28.8,N/A,,Clear,190,2013-04-07 21:51:00
6:51 PM,44.1,36.0,73,30.02,10.0,South,17.3,27.6,N/A,,Mostly Cloudy,190,2013-04-07 22:51:00
7:51 PM,44.1,36.0,73,29.99,10.0,South,19.6,28.8,N/A,,Overcast,180,2013-04-07 23:51:00
8:51 PM,44.1,36.0,73,29.99,10.0,South,18.4,24.2,N/A,,Clear,190,2013-04-08 00:51:00
9:51 PM,44.1,36.0,73,29.99,10.0,South,12.7,20.7,N/A,,Clear,190,2013-04-08 01:51:00
10:51 PM,42.8,37.4,81,29.97,10.0,SSW,12.7,23.0,N/A,,Partly Cloudy,200,2013-04-08 02:51:00
11:51 PM,44.1,37.9,79,29.96,10.0,South,8.1,-,N/A,,Overcast,190,2013-04-08 03:51:00